Regional Weather Roundup
Issued by NWS

Home | Current Version | Previous Version | Graphics & Text | Print | Product List | Glossary On
Versions: 1 2 3 4 5 6 7 8 9 10 11 12 13 14 15 16 17 18 19 20 21 22 23 24 25 26 27 28 29 30 31 32 33 34 35 36 37 38 39 40 41 42 43 44 45 46 47 48 49 50
000
ASUS44 KMEG 250310
RWRTN
TENNESSEE HOURLY STATE WEATHER ROUNDUP
NATIONAL WEATHER SERVICE MEMPHIS TN
1000 PM CDT THU JUL 24 2014

TNZ002-004-019-021-049-052-054-088>092-250400-
WEST TENNESSEE

CITY           SKY/WX    TMP DP  RH WIND       PRES   REMARKS
MEMPHIS INTL   CLEAR     72  61  68 N6        30.04R
NWS MEMPHIS      N/A     68 N/A N/A MISG        N/A
JACKSON        CLEAR     66  62  87 CALM      30.04R
DYERSBURG      CLEAR     70  55  60 N5        30.06R
UNION CITY     CLEAR     66  61  82 NE5       30.05R
PARIS          CLEAR     63  58  83 N3        30.06R
LEXINGTON      CLEAR     66  63  88 CALM      30.02S
SAVANNAH       CLEAR     66  66 100 CALM      30.03R
$$

TNZ008-025-027-028-033-062-065-066-250400-
NORTH MIDDLE TENNESSEE

CITY           SKY/WX    TMP DP  RH WIND       PRES   REMARKS
NASHVILLE      PTCLDY    73  59  61 N6        30.03R
DICKSON        CLEAR     68  57  68 NE5       30.04R
PORTLAND       CLEAR     68  55  64 NE6       30.04R
CLARKSVILLE    CLEAR     66  55  67 N6        30.04R
LEBANON        CLEAR     72  60  65 NE6       30.02R
SMYRNA         CLEAR     74  62  66 NE6       30.03R
MURFREESBORO   CLEAR     73  64  73 N5        30.02
COOKEVILLE     CLEAR     66  64  94 CALM      30.04R
LIVINGSTON       N/A     65  61  87 E3        30.07R
GALLATIN       CLEAR     72  60  65 NE7       30.04R
CROSSVILLE     PTCLDY    66  62  87 NE6       30.09R
$$

TNZ061-075-076-078-094-096-097-250400-
SOUTH MIDDLE TENNESSEE

CITY           SKY/WX    TMP DP  RH WIND       PRES   REMARKS
LEWISBURG      CLEAR     68  63  84 CALM      30.02R
FAYETTEVILLE   CLEAR     70  63  78 N10       30.03R
TULLAHOMA      CLEAR     70  64  83 CALM      30.05R
WINCHESTER     CLEAR     70  66  88 CALM      30.03R
MCMINNVILLE    CLEAR     70  70 100 NE5       30.04R
COLUMBIA       CLEAR     70  64  83 CALM      30.02R
SHELBYVILLE    MOCLDY    70  68  94 CALM      30.03S
$$

TNZ017-018-042-046-047-250400-
NORTHEAST TENNESSEE

CITY           SKY/WX    TMP DP  RH WIND       PRES   REMARKS
TRI CITIES     MOCLDY    66  60  81 N3        30.05R
ELIZABETHTON   CLOUDY    64  63  94 CALM      30.04R
$$

TNZ012-013-036-069-073-074-250400-
CENTRAL EAST TENNESSEE

CITY           SKY/WX    TMP DP  RH WIND       PRES   REMARKS
KNOXVILLE      PTCLDY    68  64  87 N8        30.03R
OAK RIDGE      CLEAR     68  62  81 CALM      30.06R
GATLINBURG     MOCLDY    70  63  78 CALM      30.03R
MORRISTOWN     MOCLDY    66  63  88 N3        30.07R
$$

TNZ083-085-099-250400-
SOUTHEAST TENNESSEE

CITY           SKY/WX    TMP DP  RH WIND       PRES   REMARKS
CHATTANOOGA    PTCLDY    77  66  68 NE9       30.00R
$$

SKY/WX REPORTED AS FAIR MEANS FEW OR NO CLOUDS BELOW
12 THOUSAND FEET.



USA.gov is the U.S. government's official web portal to all federal, state and local government web resources and services.